Date String (YYYY-MM-DD hh:mm:ss) UTC,Instrument flags,Ambient pressure (hPa),Sample flow (lpm),Bypass flow (lpm),Sample temperature (°C),Ambient temperature (°C),ASC tube jacket temperature (°C),LED temperature (°C),Box temperature (°C),Sample RH (%),Span deviation,Mass concentration (μg/m³),Mass concentration (μg/m³),Mass concentration (μg/m³)
DateTimeUTC,F1_M11,P_M11,Q1_M11,Q2_M11,T1_M11,T2_M11,T3_M11,T4_M11,T5_M11,U1_M11,ZSPAN_M11,X0_M11,X2_M11,X1_M11
2022-02-06 17:00:00,,0834.8,4.97,0.00,23.0,22.3,00.0,32.0,24.8,10.9,0000.0,0004.01,0002.37,0001.95
2022-02-06 17:01:00,,0834.8,5.00,0.00,23.0,22.3,00.0,32.0,24.7,10.8,0000.0,0004.21,0002.37,0001.95
2022-02-06 17:02:00,,0834.8,5.01,0.00,23.0,22.3,00.0,32.0,24.7,11.0,0000.0,0004.33,0002.36,0001.95
2022-02-06 17:03:00,,0834.8,5.00,0.00,23.0,22.3,00.0,32.0,24.7,11.2,0000.0,0004.01,0002.36,0001.97
2022-02-06 17:04:00,,0834.7,5.00,0.00,23.0,22.3,00.0,32.0,24.8,11.2,0000.0,0003.91,0002.34,0001.97
2022-02-06 17:05:00,,0834.8,5.00,0.00,23.0,22.3,00.0,32.0,24.8,11.5,0000.0,0003.89,0002.35,0001.99
2022-02-06 17:06:00,,0834.7,5.00,0.00,23.0,22.3,00.0,32.0,24.8,11.3,0000.0,0004.03,0002.40,0002.03
2022-02-06 17:07:00,,0834.7,5.00,0.00,23.0,22.3,00.0,31.9,24.8,11.5,0000.0,0004.05,0002.44,0002.06
2022-02-06 17:08:00,,0834.7,4.99,0.00,23.0,22.3,00.0,31.9,24.8,11.4,0000.0,0004.19,0002.51,0002.09
2022-02-06 17:09:00,,0834.7,5.01,0.00,23.0,22.3,00.0,32.0,24.7,11.2,0000.0,0004.30,0002.58,0002.13
2022-02-06 17:10:00,,0834.7,5.00,0.00,23.0,22.3,00.0,32.0,24.8,11.1,0000.0,0004.36,0002.61,0002.18
2022-02-06 17:11:00,,0834.7,5.01,0.00,23.0,22.3,00.0,32.0,24.7,11.2,0000.0,0004.47,0002.64,0002.20
2022-02-06 17:12:00,,0834.6,4.99,0.00,23.0,22.3,00.0,32.0,24.7,11.1,0000.0,0004.62,0002.70,0002.24
2022-02-06 17:13:00,,0834.7,5.01,0.00,23.0,22.3,00.0,32.0,24.7,11.2,0000.0,0004.50,0002.75,0002.25
2022-02-06 17:14:00,,0834.7,5.00,0.00,23.0,22.3,00.0,32.0,24.7,10.9,0000.0,0004.71,0002.77,0002.25
2022-02-06 17:15:00,,0834.6,4.98,0.00,23.0,22.3,00.0,31.9,24.7,11.1,0000.0,0004.83,0002.80,0002.26
2022-02-06 17:16:00,,0834.6,5.01,0.00,22.9,22.3,00.0,31.9,24.7,10.9,0000.0,0006.35,0002.79,0002.24
2022-02-06 17:17:00,,0834.6,4.99,0.00,22.9,22.2,00.0,31.9,24.7,10.9,0000.0,0006.24,0002.76,0002.22
2022-02-06 17:18:00,,0834.6,4.99,0.00,22.9,22.2,00.0,31.9,24.6,11.4,0000.0,0006.36,0002.77,0002.20
2022-02-06 17:19:00,,0834.7,5.02,0.00,22.9,22.2,00.0,31.9,24.6,11.3,0000.0,0006.38,0002.73,0002.17
2022-02-06 17:20:00,,0834.6,4.99,0.00,22.9,22.2,00.0,31.9,24.6,10.9,0000.0,0006.29,0002.64,0002.13
2022-02-06 17:21:00,,0834.6,5.01,0.00,22.9,22.2,00.0,31.9,24.6,10.7,0000.0,0006.31,0002.62,0002.09
2022-02-06 17:22:00,,0834.6,4.99,0.00,22.9,22.2,00.0,31.9,24.6,10.9,0000.0,0006.30,0002.64,0002.07
2022-02-06 17:23:00,,0834.7,5.00,0.00,22.8,22.2,00.0,31.9,24.6,10.9,0000.0,0006.48,0002.63,0002.05
2022-02-06 17:24:00,,0834.7,4.99,0.00,22.8,22.1,00.0,31.9,24.6,10.7,0000.0,0006.36,0002.55,0002.02
2022-02-06 17:25:00,,0834.7,5.01,0.00,22.8,22.1,00.0,31.9,24.5,10.6,0000.0,0006.23,0002.56,0002.03
2022-02-06 17:26:00,,0834.7,5.00,0.00,22.8,22.1,00.0,31.9,24.5,10.6,0000.0,0006.26,0002.50,0001.99
2022-02-06 17:27:00,,0834.7,4.99,0.00,22.8,22.0,00.0,31.8,24.4,10.6,0000.0,0004.74,0002.48,0002.00
2022-02-06 17:28:00,,0834.7,5.01,0.00,22.7,22.0,00.0,31.8,24.4,10.8,0000.0,0004.81,0002.47,0002.00
2022-02-06 17:29:00,,0834.7,4.99,0.00,22.7,22.0,00.0,31.8,24.4,11.1,0000.0,0005.16,0002.48,0002.00
2022-02-06 17:30:00,,0834.7,5.01,0.00,22.7,22.0,00.0,31.8,24.4,11.3,0000.0,0007.36,0002.54,0002.00
2022-02-06 17:31:00,,0834.7,5.00,0.00,22.7,22.0,00.0,31.8,24.4,11.0,0000.0,0007.56,0002.63,0002.03
2022-02-06 17:32:00,,0834.7,5.00,0.00,22.7,22.0,00.0,31.8,24.4,11.0,0000.0,0007.65,0002.69,0002.06
2022-02-06 17:33:00,,0834.8,4.99,0.00,22.7,22.0,00.0,31.8,24.4,11.0,0000.0,0007.78,0002.73,0002.08
2022-02-06 17:34:00,,0834.8,5.00,0.00,22.7,22.0,00.0,31.8,24.3,10.5,0000.0,0007.61,0002.75,0002.07
2022-02-06 17:35:00,,0834.8,5.00,0.00,22.7,22.0,00.0,31.7,24.3,10.8,0000.0,0007.57,0002.73,0002.05
2022-02-06 17:36:00,,0834.8,5.01,0.00,22.7,22.0,00.0,31.7,24.3,11.3,0000.0,0007.70,0002.73,0002.04
2022-02-06 17:37:00,,0834.9,5.00,0.00,22.7,22.0,00.0,31.7,24.3,11.0,0000.0,0007.86,0002.82,0002.08
2022-02-06 17:38:00,,0834.8,4.99,0.00,22.7,22.0,00.0,31.7,24.4,10.9,0000.0,0007.97,0002.86,0002.07
2022-02-06 17:39:00,,0834.8,5.01,0.00,22.6,22.0,00.0,31.7,24.4,11.2,0000.0,0007.99,0002.88,0002.06
2022-02-06 17:40:00,,0834.8,4.99,0.00,22.6,22.0,00.0,31.7,24.3,10.7,0000.0,0007.79,0002.83,0002.03
2022-02-06 17:41:00,,0834.8,5.01,0.00,22.6,22.0,00.0,31.7,24.3,10.8,0000.0,0005.79,0002.76,0002.00
2022-02-06 17:42:00,,0834.8,5.00,0.00,22.6,21.9,00.0,31.7,24.3,10.5,0000.0,0005.69,0002.71,0001.97
2022-02-06 17:43:00,,0834.8,5.01,0.00,22.6,21.9,00.0,31.7,24.3,10.5,0000.0,0005.69,0002.63,0001.93
2022-02-06 17:44:00,,0834.8,4.99,0.00,22.6,21.9,00.0,31.7,24.3,10.8,0000.0,0005.99,0002.63,0001.91
2022-02-06 17:45:00,,0834.8,5.01,0.00,22.6,21.9,00.0,31.7,24.3,10.9,0000.0,0006.31,0002.64,0001.92
2022-02-06 17:46:00,,0834.8,4.99,0.00,22.6,21.9,00.0,31.6,24.3,10.9,0000.0,0006.38,0002.69,0001.94
2022-02-06 17:47:00,,0834.9,5.01,0.00,22.6,22.0,00.0,31.6,24.3,11.1,0000.0,0006.31,0002.73,0001.96
2022-02-06 17:48:00,,0834.9,4.99,0.00,22.6,21.9,00.0,31.6,24.3,10.9,0000.0,0006.06,0002.69,0001.93
2022-02-06 17:49:00,,0834.9,4.99,0.00,22.6,21.9,00.0,31.6,24.3,10.9,0000.0,0006.18,0002.65,0001.90
2022-02-06 17:50:00,,0834.9,5.01,0.00,22.6,21.9,00.0,31.6,24.3,10.8,0000.0,0006.22,0002.64,0001.88
2022-02-06 17:51:00,,0835.0,5.01,0.00,22.6,21.9,00.0,31.6,24.3,10.6,0000.0,0006.09,0002.61,0001.86
2022-02-06 17:52:00,,0834.9,4.99,0.00,22.5,21.8,00.0,31.6,24.3,10.6,0000.0,0006.07,0002.60,0001.86
2022-02-06 17:53:00,,0834.9,5.01,0.00,22.5,21.8,00.0,31.6,24.3,11.0,0000.0,0006.09,0002.60,0001.84
2022-02-06 17:54:00,,0835.0,4.99,0.00,22.5,21.8,00.0,31.6,24.3,10.6,0000.0,0005.94,0002.60,0001.83
2022-02-06 17:55:00,,0835.0,4.99,0.00,22.5,21.8,00.0,31.6,24.2,10.6,0000.0,0005.49,0002.53,0001.79
2022-02-06 17:56:00,,0835.0,5.01,0.00,22.5,21.7,00.0,31.6,24.2,10.6,0000.0,0004.82,0002.45,0001.75
2022-02-06 17:57:00,,0835.0,5.00,0.00,22.5,21.7,00.0,31.5,24.2,10.6,0000.0,0004.83,0002.39,0001.72
2022-02-06 17:58:00,,0835.0,5.00,0.00,22.5,21.7,00.0,31.5,24.2,10.8,0000.0,0005.53,0002.30,0001.68
2022-02-06 17:59:00,,0835.0,4.99,0.00,22.4,21.7,00.0,31.5,24.2,10.6,0000.0,0005.42,0002.24,0001.65
